FW9915 Weather Reports


time (UTC)temp
F
wind
direction
speed
knots
gust
knots
rain 1hr
in
rain 24hr
in
rain mn
in
humidity
%
barometer
mb
20260901115540 75 133 3.5 7.8 0.00 0.00 0.00 79 1017.2
20260901114520 74 122 4.3 7.8 0.00 0.00 0.00 80 1017.1
20260901113532 74 135 4.3 7.8 0.00 0.00 0.00 80 1017.3
20260901112520 74 121 5.2 9.6 0.00 0.00 0.00 82 1017.3
20260901111520 74 138 4.3 7.8 0.00 0.00 0.00 82 1017.3
20260901110532 74 126 4.3 7.8 0.00 0.00 0.00 83 1017.4
20260901105612 74 152 5.2 7.8 0.00 0.00 0.00 81 1017.4
20260901104532 75 145 3.5 7.8 0.00 0.00 0.00 79 1017.4
20260901103540 74 135 3.5 7.8 0.00 0.00 0.00 81 1017.6
20260901102520 75 155 3.5 7.8 0.00 0.00 0.00 80 1017.7
20260901101520 74 136 4.3 9.6 0.00 0.00 0.00 82 1017.7
20260901100520 75 192 3.5 7.8 0.00 0.00 0.00 79 1017.7
20260901095520 75 168 2.6 6.1 0.00 0.00 0.00 80 1017.7
20260901094520 75 170 3.5 6.1 0.00 0.00 0.00 80 1017.7
20260901093520 75 172 3.5 7.8 0.00 0.00 0.00 80 1017.7
20260901092520 75 133 2.6 6.1 0.00 0.00 0.00 80 1017.6
20260901091520 75 148 2.6 6.1 0.00 0.00 0.00 81 1017.5
20260901090520 74 129 4.3 7.8 0.00 0.00 0.00 82 1017.5
20260901085520 74 158 3.5 6.1 0.00 0.00 0.00 81 1017.5
20260901084520 74 125 3.5 6.1 0.00 0.00 0.00 81 1017.4
20260901083520 74 99 3.5 6.1 0.00 0.00 0.00 82 1017.4
20260901082544 74 119 3.5 7.8 0.00 0.00 0.00 81 1017.3
20260901081520 74 131 4.3 7.8 0.00 0.00 0.00 82 1017.2
20260901080540 74 136 3.5 7.8 0.00 0.00 0.00 81 1017.3
20260901075520 74 136 3.5 7.8 0.00 0.00 0.00 81 1017.4
20260901074540 74 129 4.3 7.8 0.00 0.00 0.00 81 1017.4
20260901073520 74 130 2.6 6.1 0.00 0.00 0.00 80 1017.4
20260901072520 74 115 2.6 7.8 0.00 0.00 0.00 81 1017.2
20260901071520 74 124 3.5 7.8 0.00 0.00 0.00 82 1017.3
20260901070520 74 105 3.5 6.1 0.00 0.00 0.00 80 1017.2
20260901065520 74 138 3.5 6.1 0.00 0.00 0.00 81 1017.2
20260901064520 74 129 2.6 6.1 0.00 0.00 0.00 82 1017.0
20260901063520 74 107 1.7 6.1 0.00 0.00 0.00 84 1016.9
20260901062520 73 153 1.7 3.5 0.00 0.00 0.00 83 1016.9
20260901061532 73 90 2.6 6.1 0.00 0.00 0.00 85 1016.7
20260901060520 72 59 3.5 6.1 0.00 0.00 0.00 85 1016.6
20260901055612 72 68 2.6 3.5 0.00 0.00 0.00 87 1016.6
20260901054540 71 51 2.6 3.5 0.00 0.00 0.00 87 1016.7
20260901053520 70 38 3.5 3.5 0.00 0.00 0.00 88 1016.8
20260901052520 69 30 1.7 3.5 0.00 0.00 0.00 90 1016.7
20260901051520 67 0.0 0.0 0.00 0.00 0.00 93 1016.8
20260901050520 68 0.0 0.0 0.00 0.00 0.00 95 1016.9
20260901045520 66 0.0 0.0 0.00 0.00 0.00 99 1016.8
20260901044521 65 338 0.0 1.7 0.00 0.00 0.00 99 1016.8
20260901043520 63 338 0.0 1.7 0.00 0.00 0.00 99 1016.8
20260901042544 63 338 0.0 0.0 0.00 0.00 0.00 99 1016.7
20260901041532 62 0.0 0.0 0.00 0.00 0.00 99 1016.7
20260901040600 61 0.0 0.0 0.00 0.00 0.00 99 1016.6
20260901035520 60 0.0 0.0 0.00 0.00 0.00 99 1016.6
20260901034540 61 338 0.9 1.7 0.00 0.00 0.00 99 1016.7
20260901033520 60 338 0.9 1.7 0.00 0.00 0.00 99 1016.8
20260901032612 59 0.0 0.0 0.00 0.00 0.00 99 1016.7
20260901031541 59 0.0 0.0 0.00 0.00 0.00 99 1016.5
20260901030520 59 0.0 0.0 0.00 0.00 0.00 99 1016.4
20260901025520 59 0.0 0.0 0.00 0.00 0.00 99 1016.4
20260901024532 59 0.0 0.0 0.00 0.00 0.00 99 1016.5
20260901023520 59 0.0 0.0 0.00 0.00 0.00 99 1016.8
20260901022540 58 0.0 0.0 0.00 0.00 0.00 99 1016.7
20260901021540 58 0.0 0.0 0.00 0.00 0.00 99 1016.7
20260901020520 58 0.0 0.0 0.00 0.00 0.00 99 1016.7
20260901015520 59 0.0 0.0 0.00 0.00 0.00 99 1016.7
20260901014520 60 0.0 0.0 0.00 0.00 0.00 99 1016.7
20260901013520 59 0.0 0.0 0.00 0.00 0.00 99 1016.7
20260901012520 59 0.0 0.0 0.00 0.00 0.00 99 1016.7
20260901011532 60 0.0 0.0 0.00 0.00 0.00 99 1016.8
20260901010520 59 0.0 0.0 0.00 0.00 0.00 99 1016.8
20260901005540 60 0.0 0.0 0.00 0.00 0.00 99 1016.8
20260901004520 60 0.0 0.0 0.00 0.00 0.00 99 1016.9
20260901003532 60 0.0 0.0 0.00 0.00 0.00 99 1016.9
20260901002520 60 0.0 0.0 0.00 0.00 0.00 99 1017.0
20260901001520 59 0.0 0.0 0.00 0.00 0.00 99 1016.9
20260901000532 60 0.0 0.0 0.00 0.00 0.00 99 1017.0
20260831235557 60 0.0 0.0 0.00 0.00 0.00 99 1017.0
20260831234520 60 0.0 0.0 0.00 0.00 0.00 99 1016.9
20260831233520 60 0.0 0.0 0.00 0.00 0.00 99 1016.8
20260831232553 61 0.0 0.0 0.00 0.00 0.00 99 1016.9
20260831231521 60 0.0 0.0 0.00 0.00 0.00 99 1017.0
20260831230532 61 0.0 0.0 0.00 0.00 0.00 99 1017.1
20260831225521 61 0.0 0.0 0.00 0.00 0.00 99 1017.2
20260831224520 61 0.0 0.0 0.00 0.00 0.00 99 1017.3
20260831223541 61 0.0 0.0 0.00 0.00 0.00 99 1017.3
20260831222520 61 0.0 0.0 0.00 0.00 0.00 99 1017.3
20260831221520 61 0.0 0.0 0.00 0.00 0.00 99 1017.4
20260831220520 61 0.0 0.0 0.00 0.00 0.00 99 1017.4
20260831215520 62 0.0 0.0 0.00 0.00 0.00 99 1017.5
20260831214520 62 0.0 0.0 0.00 0.00 0.00 99 1017.6
20260831213532 62 0.0 0.0 0.00 0.00 0.00 99 1017.6
20260831212520 61 0.0 0.0 0.00 0.00 0.00 99 1017.7
20260831211520 62 0.0 0.0 0.00 0.00 0.00 98 1017.7
20260831210520 63 0.0 0.0 0.00 0.00 0.00 98 1017.8
20260831205520 62 0.0 0.0 0.00 0.00 0.00 98 1017.8
20260831204520 63 0.0 0.0 0.00 0.00 0.00 98 1017.8
20260831203520 63 0.0 0.0 0.00 0.00 0.00 97 1017.9
20260831202544 63 0.0 0.0 0.00 0.00 0.00 97 1017.9
20260831201520 64 0.0 0.0 0.00 0.00 0.00 97 1017.8
20260831200520 63 0.0 0.0 0.00 0.00 0.00 96 1017.7
20260831195520 64 0.0 0.0 0.00 0.00 0.00 96 1017.6
20260831194520 64 0.0 0.0 0.00 0.00 0.00 95 1017.6
20260831193520 65 0.0 0.0 0.00 0.00 0.00 95 1017.6
20260831192520 65 0.0 0.0 0.00 0.00 0.00 95 1017.7
20260831191521 66 0.0 0.0 0.00 0.00 0.00 95 1017.6
20260831190600 65 0.0 0.0 0.00 0.00 0.00 93 1017.7
20260831185540 66 0.0 0.0 0.00 0.00 0.00 92 1017.7
20260831184520 67 0.0 0.0 0.00 0.00 0.00 92 1017.7
20260831183520 67 67 1.7 1.7 0.00 0.00 0.00 91 1017.7
20260831182520 67 0.0 0.0 0.00 0.00 0.00 89 1017.8
20260831181540 67 0.0 0.0 0.00 0.00 0.00 88 1017.9
20260831180532 67 0.0 0.0 0.00 0.00 0.00 86 1017.9
20260831175544 68 68 0.9 1.7 0.00 0.00 0.00 84 1017.8
20260831174533 68 67 1.7 1.7 0.00 0.00 0.00 83 1017.8
20260831173520 68 68 0.0 1.7 0.00 0.00 0.00 82 1017.7
20260831172520 69 68 0.9 1.7 0.00 0.00 0.00 78 1017.6
20260831171520 70 67 1.7 1.7 0.00 0.00 0.00 76 1017.5
20260831170520 70 23 1.7 3.5 0.00 0.00 0.00 74 1017.5
20260831165520 71 67 1.7 1.7 0.00 0.00 0.00 71 1017.5
20260831164520 72 67 1.7 1.7 0.00 0.00 0.00 69 1017.5
20260831163520 73 66 1.7 3.5 0.00 0.00 0.00 66 1017.4
20260831162541 74 68 2.6 6.1 0.00 0.00 0.00 64 1017.4
20260831161520 75 74 4.3 6.1 0.00 0.00 0.00 60 1017.4
20260831160532 75 54 4.3 7.8 0.00 0.00 0.00 59 1017.4
20260831155541 76 68 4.3 7.8 0.00 0.00 0.00 56 1017.4
20260831154520 76 54 5.2 7.8 0.00 0.00 0.00 51 1017.4
20260831153520 77 59 5.2 7.8 0.00 0.00 0.00 51 1017.4
20260831152520 77 59 5.2 7.8 0.00 0.00 0.00 50 1017.4
20260831151520 77 59 6.1 7.8 0.00 0.00 0.00 50 1017.4
20260831150533 78 59 5.2 7.8 0.00 0.00 0.00 50 1017.4
20260831145520 78 55 5.2 9.6 0.00 0.00 0.00 50 1017.4
20260831144520 78 70 5.2 7.8 0.00 0.00 0.00 50 1017.4
20260831143520 79 61 5.2 9.6 0.00 0.00 0.00 48 1017.4
20260831142540 79 55 6.1 9.6 0.00 0.00 0.00 45 1017.4
20260831141520 79 81 5.2 7.8 0.00 0.00 0.00 45 1017.5
20260831140521 79 71 5.2 9.6 0.00 0.00 0.00 44 1017.5
20260831135521 79 64 6.1 13.0 0.00 0.00 0.00 44 1017.5
20260831134521 80 68 4.3 7.8 0.00 0.00 0.00 43 1017.5
20260831133521 80 84 4.3 7.8 0.00 0.00 0.00 42 1017.5
20260831132521 80 54 4.3 7.8 0.00 0.00 0.00 44 1017.4
20260831131520 80 69 6.1 13.0 0.00 0.00 0.00 40 1017.4
20260831130552 80 108 4.3 7.8 0.00 0.00 0.00 50 1017.5
20260831125532 81 60 5.2 9.6 0.00 0.00 0.00 42 1017.6
20260831124520 81 70 4.3 7.8 0.00 0.00 0.00 42 1017.7
20260831123532 79 87 4.3 6.1 0.00 0.00 0.00 55 1017.7
20260831122520 80 68 5.2 7.8 0.00 0.00 0.00 46 1017.8
20260831121532 79 115 4.3 7.8 0.00 0.00 0.00 53 1017.8
20260831120520 79 58 3.5 7.8 0.00 0.00 0.00 53 1017.8